Temperature
8 8 8 8 8 8 8 8 8 8 8 8 8 8 8 8 8 8 8 7 7 7 7 7 7 6 6 6 6 6 6 5 5 5 5 5 5 5 5 5 5 5 4
7 7 7 7 8 8 8 8 8 8 8 8 8 8 8 7 7 7 7 7 7 7 6 6 6 6 6 6 6 5 5 5 5 5 5 4 4 4 4 4 4 4 4
6 6 7 7 7 7 7 7 7 7 7 7 7 7 7 7 7 7 6 6 6 6 6 6 6 5 5 5 5 5 5 5 4 4 4 4 4 3 3 3 3 3 3
6 6 6 6 6 6 7 7 7 7 7 6 6 6 6 6 6 6 6 6 6 6 5 5 5 5 5 5 5 4 4 4 4 3 3 3 3 3 3 3 3 3 3
5 5 5 6 6 6 6 6 6 6 6 6 6 6 6 6 6 6 5 5 5 5 5 4 4 4 4 4 4 4 4 3 3 3 3 2 2 2 2 2 2 2 2
5 5 5 5 5 5 5 5 5 5 5 5 5 5 5 5 5 5 5 5 4 4 4 4 4 3 3 3 3 3 3 3 2 2 2 2 2 1 1 1 1 1 1
4 4 4 4 4 4 5 5 5 5 4 4 4 4 4 4 4 4 4 4 4 4 3 3 3 3 3 3 3 2 2 2 2 2 1 1 1 1 1 0 0 0 0
3 3 3 4 4 4 4 4 4 4 4 3 3 3 3 3 3 3 3 3 3 3 3 3 2 2 2 2 2 2 2 1 1 1 1 1 1 0 0 -0 -0 -0 -0
2 3 3 3 3 3 3 3 3 3 3 3 3 3 3 3 2 3 3 2 2 2 2 2 2 2 1 1 1 1 1 1 1 1 0 0 0 -0 -0 -0 -1 -1 -1
2 2 2 2 2 2 2 2 2 2 2 2 2 2 2 2 2 2 2 2 2 1 1 1 1 1 1 1 1 0 0 0 0 0 0 0 -0 -0 -0 -1 -1 -2 -2
1 1 1 2 2 2 2 1 1 1 1 1 1 1 1 1 1 1 1 1 1 1 1 1 0 0 0 0 -0 -0 -0 -0 -0 -1 -1 -1 -1 -1 -1 -1 -2 -2 -2
1 1 1 1 1 1 1 1 1 1 1 0 0 0 0 0 0 0 0 0 0 0 0 -0 -0 -0 -0 -1 -1 -1 -1 -1 -1 -1 -1 -1 -1 -1 -2 -2 -2 -2 -3
-0 -0 0 0 -0 -0 0 0 -0 -0 -0 -0 -1 -1 -1 -1 -1 -1 -1 -1 -1 -1 -1 -1 -1 -1 -1 -1 -1 -1 -1 -2 -2 -2 -2 -2 -2 -2 -2 -2 -3 -3 -3
-1 -1 -1 -1 -1 -1 -1 -1 -1 -1 -1 -1 -1 -1 -1 -1 -1 -1 -1 -1 -1 -1 -2 -2 -2 -2 -2 -2 -2 -2 -2 -2 -3 -3 -3 -3 -3 -3 -3 -3 -3 -3 -3
-2 -2 -2 -2 -2 -2 -1 -1 -1 -1 -1 -1 -1 -1 -1 -1 -2 -2 -2 -2 -2 -2 -2 -2 -2 -2 -2 -2 -2 -3 -3 -3 -3 -3 -3 -3 -3 -4 -4 -4 -4 -4 -4
-2 -3 -2 -2 -2 -2 -2 -2 -2 -2 -2 -2 -2 -2 -2 -2 -2 -2 -2 -2 -3 -3 -3 -3 -3 -3 -3 -3 -3 -3 -3 -4 -4 -4 -4 -4 -4 -4 -4 -4 -5 -5 -5
-3 -3 -3 -3 -3 -3 -3 -3 -3 -3 -3 -3 -2 -2 -2 -3 -3 -3 -3 -3 -3 -3 -3 -3 -4 -4 -4 -4 -4 -4 -4 -4 -4 -5 -5 -5 -5 -5 -5 -5 -5 -5 -5
-4 -4 -4 -4 -3 -3 -3 -3 -3 -3 -3 -3 -3 -3 -3 -3 -3 -3 -4 -4 -4 -4 -4 -4 -4 -4 -4 -4 -5 -5 -5 -5 -5 -5 -5 -6 -6 -6 -6 -6 -6 -6 -6
-4 -4 -4 -4 -4 -4 -4 -4 -4 -4 -4 -4 -4 -4 -4 -4 -4 -4 -4 -4 -4 -4 -4 -5 -5 -5 -5 -5 -5 -5 -5 -5 -6 -6 -6 -6 -6 -6 -6 -6 -6 -6 -6
-5 -5 -5 -5 -5 -4 -4 -4 -4 -4 -4 -4 -4 -4 -4 -5 -5 -5 -5 -5 -5 -5 -5 -5 -5 -5 -5 -6 -6 -6 -6 -6 -6 -6 -6 -7 -7 -7 -7 -6 -6 -6 -6
-5 -5 -5 -5 -5 -5 -5 -5 -5 -5 -5 -5 -5 -5 -5 -5 -5 -5 -6 -6 -6 -6 -6 -6 -6 -6 -6 -6 -6 -6 -6 -7 -7 -7 -7 -7 -7 -7 -7 -7 -7 -7 -7
-6 -6 -6 -5 -5 -5 -6 -6 -5 -5 -5 -6 -6 -6 -6 -6 -6 -6 -6 -6 -6 -6 -6 -6 -6 -7 -7 -7 -7 -7 -7 -7 -7 -7 -7 -7 -7 -7 -7 -7 -7 -7 -7
-6 -6 -6 -6 -6 -6 -6 -6 -6 -6 -6 -6 -6 -7 -7 -7 -7 -7 -7 -7 -7 -7 -7 -7 -7 -7 -7 -7 -7 -7 -7 -7 -7 -7 -7 -7 -7 -7 -7 -7 -7 -7 -7
-6 -6 -6 -6 -6 -6 -6 -7 -7 -7 -7 -7 -7 -7 -7 -7 -7 -7 -7 -7 -7 -7 -7 -7 -7 -7 -7 -7 -8 -8 -8 -8 -8 -8 -8 -8 -8 -8 -8 -7 -7 -8 -8
-6 -6 -6 -6 -7 -7 -7 -7 -7 -7 -7 -7 -7 -7 -7 -8 -8 -8 -8 -8 -8 -8 -8 -8 -8 -8 -8 -8 -8 -8 -8 -8 -8 -8 -8 -8 -8 -8 -8 -8 -8 -8 -8
-7 -7 -7 -7 -7 -7 -7 -7 -7 -8 -8 -8 -8 -8 -8 -8 -8 -8 -8 -8 -8 -8 -8 -8 -8 -8 -8 -8 -8 -8 -8 -8 -8 -8 -8 -8 -8 -8 -8 -8 -8 -8 -8
Wind_Speed
2 2 2 2 2 3 3 4 5 4 5 5 5 5 6 6 6 6 5 5 5 4 3 3 3 2 1 1 1 1 1 2 4 3 2 2 3 3 5 6 7 7 8
1 1 1 2 2 3 3 4 4 5 5 5 5 5 6 6 6 6 6 5 5 5 4 4 3 2 2 1 1 1 1 2 3 5 4 3 3 3 4 5 6 7 8
1 1 1 2 2 2 3 4 4 5 5 5 5 5 5 6 6 6 5 5 4 4 4 4 3 3 2 2 1 2 2 2 2 3 4 3 3 3 4 4 5 6 7
1 1 1 1 2 2 2 3 4 5 5 5 5 5 5 5 5 6 5 5 4 3 3 3 3 3 3 2 2 2 1 1 1 2 3 3 3 3 3 4 5 4 5
1 0 0 0 1 1 2 2 3 4 4 4 4 4 4 4 4 6 5 5 5 4 3 3 2 2 2 2 2 2 1 1 2 2 4 4 3 3 3 3 5 5 5
2 2 1 1 1 2 2 3 3 3 3 4 4 4 4 3 6 6 5 5 4 4 3 2 2 2 2 1 2 2 2 2 3 3 3 4 5 4 4 4 4 5 5
2 2 1 1 2 2 2 2 3 3 3 3 3 3 3 4 6 6 5 4 4 4 3 3 2 2 1 1 1 1 2 3 4 4 4 4 4 4 4 4 4 4 5
2 2 2 2 2 2 3 2 2 2 3 3 3 4 3 3 4 5 5 3 3 2 2 3 3 2 2 1 1 1 1 2 4 3 3 4 4 4 4 4 4 5 4
3 2 2 1 2 3 3 2 2 3 3 3 3 4 4 4 5 5 5 3 3 2 2 1 2 2 2 1 1 1 2 3 4 4 5 5 6 7 6 3 3 4 5
3 2 2 1 2 3 2 2 2 3 3 4 4 4 4 4 5 5 4 3 3 2 1 1 1 1 2 2 1 2 3 3 2 3 4 5 5 5 6 3 3 4 4
4 3 2 2 2 3 3 3 3 4 4 4 4 3 4 4 4 4 3 2 2 2 1 1 0 1 2 3 2 2 3 3 2 2 2 3 3 3 3 3 3 3 4
4 3 3 3 3 3 3 3 3 4 4 4 4 3 3 3 3 3 3 2 2 1 1 0 0 1 3 3 3 3 3 3 1 2 2 3 3 3 3 4 5 4 4
4 4 4 4 4 3 3 3 3 3 3 2 3 2 2 2 2 3 3 2 2 1 0 1 2 2 3 2 2 3 3 2 1 2 2 3 3 3 3 4 4 4 4
4 4 3 4 4 3 3 3 3 2 2 2 2 2 2 1 1 1 1 1 1 1 1 1 2 3 2 2 2 2 2 1 1 1 2 2 3 3 3 3 3 4 3
3 3 3 3 3 3 3 3 3 2 1 2 1 2 2 1 1 1 1 0 0 0 1 1 1 1 1 1 1 1 1 2 2 2 2 3 3 3 3 3 3 3 3
3 3 2 2 2 2 2 3 4 3 3 3 3 2 1 0 1 1 2 1 1 0 1 0 0 1 1 1 1 1 1 1 1 2 2 2 3 3 4 3 3 3 3
2 2 2 2 2 1 1 1 2 3 3 3 3 3 2 1 1 2 2 1 1 1 1 0 1 1 1 1 1 2 2 2 2 2 2 3 3 3 3 4 4 3 4
2 2 2 1 1 1 1 1 1 1 1 1 2 2 2 2 2 3 3 3 2 2 1 1 1 1 1 1 1 2 2 2 2 2 2 2 3 3 3 4 4 4 4
1 1 1 1 1 1 1 1 1 1 1 1 1 2 3 3 3 3 3 2 1 1 1 1 1 1 2 2 2 2 2 2 2 2 2 2 2 3 3 4 4 5 5
1 1 1 1 1 1 1 1 1 1 1 1 1 1 1 2 2 2 2 2 1 1 1 1 1 2 2 2 2 2 2 2 3 2 2 3 3 3 4 4 4 4 4
1 1 2 1 1 0 0 0 1 1 1 1 1 1 1 1 1 1 2 2 1 1 2 2 2 2 2 2 2 2 3 3 3 3 3 3 3 3 3 3 4 3 4
1 1 1 0 0 1 1 1 1 1 1 1 0 1 2 1 1 1 1 2 2 2 2 2 2 2 2 2 2 2 3 3 3 3 3 3 3 3 3 3 3 3 3
0 0 1 1 1 1 1 1 1 1 1 1 1 1 1 1 1 1 1 1 2 2 2 2 2 2 2 2 3 3 3 3 3 3 3 3 3 3 3 3 3 3 3
0 0 0 1 1 0 0 1 1 1 1 1 0 0 0 1 1 1 1 2 2 2 2 2 3 3 4 4 4 4 5 5 4 4 4 3 3 3 3 3 3 3 3
0 0 0 0 0 0 1 1 1 1 0 0 0 0 0 1 1 1 2 2 2 3 3 3 3 4 5 5 5 6 6 7 6 5 4 3 3 3 3 3 3 3 3
1 0 0 1 1 0 0 0 1 0 0 0 0 0 1 1 1 1 2 2 2 3 4 4 4 6 6 6 7 7 7 7 7 7 5 3 3 3 3 3 3 3 3
Wind_Direction
227 221 197 192 198 181 170 165 159 153 152 158 163 168 169 168 166 167 174 171 168 168 170 167 177 181 181 192 210 229 244 231 258 284 296 305 306 304 317 313 307 304 299
273 237 194 189 184 176 168 166 155 157 160 161 165 164 173 169 167 170 176 171 171 175 175 171 184 184 186 193 196 220 242 238 245 275 294 306 303 302 303 310 317 314 309
294 240 213 199 188 186 177 168 162 161 161 164 165 173 169 168 169 171 170 168 171 175 174 177 186 183 200 198 194 220 248 263 253 262 281 294 298 310 311 313 317 316 316
312 226 207 216 185 175 173 162 158 157 159 164 169 169 164 160 167 168 165 162 163 166 170 178 185 190 197 198 207 217 245 260 256 262 276 288 297 304 310 309 313 311 314
349 325 247 347 131 135 142 143 147 147 149 152 152 156 153 152 160 163 160 162 166 168 172 180 189 189 200 218 228 215 216 246 257 264 274 288 294 305 303 301 304 310 309
8 4 5 46 104 125 137 140 142 143 142 140 145 153 154 154 156 158 157 164 169 170 168 172 177 178 194 233 256 255 239 232 240 253 274 278 287 294 299 301 305 316 309
8 4 5 49 91 97 108 129 138 143 141 142 147 144 145 146 154 158 154 148 157 165 168 173 186 190 183 200 249 306 304 289 270 256 257 269 282 289 292 292 292 295 289
4 19 15 35 83 85 89 108 120 132 143 138 131 129 131 143 150 156 143 122 127 145 160 171 177 184 202 202 202 277 281 293 287 273 245 260 269 279 269 274 281 292 287
3 11 13 47 75 81 84 98 107 115 121 126 128 129 129 135 136 134 120 120 125 124 130 141 153 168 216 241 212 257 282 291 303 298 294 297 304 310 312 311 306 307 305
355 1 8 60 82 83 82 85 96 112 114 107 103 111 120 126 135 128 122 125 127 125 116 129 185 216 253 275 239 236 264 278 297 312 313 316 318 320 322 312 285 289 300
1 20 36 57 76 86 78 74 90 98 97 94 91 89 99 111 115 117 114 112 134 139 141 140 188 294 305 299 296 265 272 292 298 300 301 306 316 321 325 318 306 285 283
13 37 44 50 61 77 87 80 86 96 95 97 97 88 88 97 100 108 94 84 78 124 159 151 270 310 316 318 322 309 311 326 319 312 312 318 320 319 314 314 305 295 282
21 39 49 53 57 63 80 85 81 84 93 96 100 101 88 74 79 80 77 73 50 34 38 320 318 324 337 340 329 323 339 345 319 308 306 307 309 308 316 318 321 313 309
24 30 40 52 53 50 58 71 83 87 96 104 114 114 102 80 69 73 76 80 72 43 39 7 353 348 351 345 342 350 358 326 315 297 304 309 315 318 317 315 316 323 324
24 31 35 45 55 50 49 57 69 70 122 134 126 127 130 154 236 281 309 27 130 157 29 37 26 353 349 357 1 352 355 350 340 323 315 319 321 320 318 321 319 324 320
23 23 28 35 49 57 60 52 50 64 61 59 61 75 74 14 315 307 304 302 292 169 40 108 271 274 273 290 309 323 331 328 317 313 316 316 317 318 320 324 324 323 318
21 16 22 33 43 48 63 84 64 47 51 54 57 51 43 22 11 0 353 347 339 61 64 342 269 266 275 281 286 293 302 309 310 310 315 315 315 316 319 320 321 320 319
18 17 21 39 34 35 38 56 107 111 70 36 40 45 43 35 24 24 32 48 42 33 33 343 313 309 302 292 287 288 296 306 311 309 304 305 307 310 312 313 313 313 313
11 6 27 45 39 42 45 40 69 85 90 58 41 43 43 37 35 38 46 50 37 5 353 339 321 309 306 300 293 291 293 292 294 294 293 295 298 303 303 306 306 312 314
11 13 19 34 27 30 62 69 84 94 87 74 51 35 29 39 46 33 30 24 9 343 332 322 314 306 301 295 292 293 289 285 286 285 287 289 289 291 293 298 301 305 306
11 4 358 9 0 11 50 65 91 104 104 84 37 3 35 66 52 16 5 3 347 328 318 310 304 301 298 298 291 285 281 280 280 277 277 281 285 288 288 291 296 300 304
10 5 3 29 33 46 56 65 90 113 129 119 81 37 29 47 42 0 345 340 331 319 308 301 295 286 273 272 282 279 278 275 274 273 275 280 281 283 288 293 299 305 307
45 46 29 39 48 34 27 69 108 122 130 122 102 60 43 45 15 340 334 331 328 322 317 307 296 293 290 279 268 260 269 273 271 263 267 276 283 287 289 290 292 296 299
65 74 64 55 47 43 87 99 112 121 120 110 98 61 26 1 334 323 323 325 323 316 313 308 298 292 290 286 277 272 268 271 275 268 260 264 275 280 284 290 291 290 294
165 177 148 111 98 89 87 99 109 108 104 77 47 358 346 328 311 308 314 320 320 315 311 311 305 300 293 286 281 279 281 286 285 281 273 257 258 265 272 279 287 293 292
168 140 106 93 97 101 109 121 119 124 154 233 265 265 280 291 295 301 309 315 315 310 310 310 306 303 298 289 285 288 291 291 289 286 279 259 254 261 268 273 276 280 284
Height
1463 1464 1465 1467 1468 1470 1471 1473 1476 1478 1481 1483 1485 1486 1488 1490 1493 1495 1497 1499 1501 1502 1504 1505 1506 1507 1508 1509 1509 1509 1509 1509 1508 1506 1506 1505 1504 1502 1501 1500 1498 1496 1494
1459 1460 1461 1462 1464 1466 1467 1469 1471 1474 1476 1478 1481 1482 1484 1486 1489 1491 1493 1494 1496 1497 1499 1501 1502 1503 1504 1504 1505 1505 1505 1505 1504 1502 1501 1500 1499 1498 1496 1495 1493 1491 1490
1456 1457 1457 1458 1460 1461 1463 1465 1467 1470 1472 1474 1476 1478 1480 1482 1484 1487 1489 1490 1492 1493 1495 1496 1497 1499 1500 1500 1500 1501 1501 1501 1500 1499 1497 1496 1495 1494 1492 1490 1489 1487 1485
1453 1454 1453 1455 1456 1458 1460 1461 1463 1466 1468 1470 1472 1474 1476 1478 1480 1482 1484 1486 1488 1489 1491 1492 1494 1495 1495 1496 1496 1496 1496 1496 1495 1494 1493 1492 1490 1489 1488 1486 1483 1482 1480
1451 1451 1451 1452 1453 1454 1456 1457 1459 1462 1464 1466 1468 1470 1472 1474 1476 1478 1480 1482 1484 1485 1487 1488 1490 1491 1492 1492 1492 1492 1492 1491 1491 1490 1489 1487 1486 1485 1483 1481 1479 1477 1475
1448 1448 1448 1449 1450 1451 1452 1453 1456 1458 1460 1462 1464 1466 1468 1470 1473 1475 1476 1478 1480 1481 1483 1484 1486 1487 1487 1488 1488 1487 1488 1487 1486 1486 1484 1483 1482 1481 1480 1478 1475 1472 1470
1446 1446 1446 1447 1447 1447 1448 1450 1452 1454 1457 1459 1461 1463 1465 1467 1469 1471 1473 1475 1476 1477 1479 1480 1481 1482 1483 1483 1483 1483 1483 1483 1483 1482 1481 1479 1478 1477 1476 1473 1471 1469 1467
1444 1444 1445 1444 1444 1445 1446 1447 1449 1452 1454 1456 1458 1460 1462 1464 1466 1468 1470 1471 1473 1474 1476 1477 1478 1478 1479 1479 1479 1479 1479 1479 1479 1478 1477 1475 1475 1474 1472 1470 1468 1465 1463
1443 1443 1443 1443 1443 1443 1444 1445 1447 1449 1451 1453 1455 1457 1459 1461 1463 1465 1467 1468 1470 1471 1472 1473 1474 1475 1475 1475 1475 1475 1475 1475 1474 1474 1473 1472 1471 1469 1468 1466 1464 1461 1458
1443 1442 1442 1442 1442 1442 1443 1444 1445 1447 1449 1451 1453 1455 1457 1458 1460 1462 1464 1465 1466 1467 1469 1469 1470 1471 1472 1472 1472 1472 1471 1471 1470 1469 1469 1468 1466 1465 1464 1462 1460 1458 1455
1442 1442 1442 1441 1441 1442 1442 1443 1444 1446 1447 1449 1451 1453 1454 1456 1458 1460 1461 1462 1463 1464 1465 1466 1467 1468 1468 1468 1469 1468 1468 1467 1466 1465 1464 1463 1462 1461 1460 1458 1457 1455 1452
1441 1441 1441 1441 1441 1442 1442 1443 1444 1445 1446 1448 1450 1452 1454 1456 1457 1458 1459 1460 1461 1462 1462 1463 1464 1464 1465 1464 1464 1464 1464 1463 1462 1461 1460 1459 1458 1457 1455 1454 1452 1451 1449
1440 1440 1440 1440 1441 1441 1442 1443 1444 1445 1446 1448 1449 1451 1452 1454 1455 1456 1457 1458 1459 1460 1460 1460 1461 1461 1461 1460 1460 1460 1460 1459 1458 1457 1456 1455 1454 1453 1451 1450 1448 1447 1445
1440 1440 1440 1440 1440 1441 1442 1443 1444 1445 1446 1448 1449 1450 1451 1452 1454 1454 1455 1455 1456 1457 1457 1457 1457 1457 1457 1457 1457 1457 1456 1456 1455 1453 1452 1451 1450 1449 1447 1446 1444 1442 1441
1440 1439 1439 1440 1440 1441 1442 1443 1444 1445 1447 1448 1448 1449 1450 1451 1452 1453 1452 1453 1453 1454 1454 1454 1454 1454 1454 1453 1453 1453 1453 1452 1451 1450 1449 1447 1446 1445 1444 1442 1441 1439 1437
1439 1439 1439 1439 1440 1440 1442 1443 1444 1445 1446 1447 1447 1448 1449 1449 1450 1450 1451 1451 1451 1451 1451 1451 1450 1450 1450 1450 1450 1449 1449 1448 1448 1447 1446 1444 1443 1442 1440 1439 1438 1436 1434
1438 1439 1439 1439 1440 1440 1441 1441 1442 1444 1445 1445 1445 1446 1447 1447 1448 1448 1448 1448 1448 1448 1448 1448 1447 1447 1447 1447 1447 1446 1446 1445 1444 1444 1443 1441 1440 1439 1438 1436 1435 1433 1432
1438 1438 1438 1439 1439 1440 1440 1441 1441 1442 1442 1443 1444 1444 1445 1445 1446 1446 1446 1446 1445 1446 1445 1445 1445 1444 1444 1444 1443 1443 1442 1442 1441 1440 1439 1439 1438 1437 1435 1434 1432 1431 1429
1437 1437 1437 1438 1438 1438 1439 1439 1440 1440 1441 1441 1441 1442 1443 1443 1444 1444 1444 1444 1443 1443 1443 1443 1442 1442 1441 1441 1440 1440 1439 1439 1438 1437 1436 1436 1435 1434 1432 1431 1430 1428 1427
1436 1436 1436 1436 1437 1437 1437 1438 1438 1439 1439 1439 1440 1440 1441 1441 1441 1441 1441 1441 1441 1441 1440 1440 1439 1439 1438 1438 1437 1436 1436 1435 1435 1434 1433 1432 1432 1431 1429 1428 1427 1425 1424
1434 1435 1435 1435 1435 1436 1436 1436 1437 1437 1438 1438 1438 1439 1439 1439 1439 1439 1439 1439 1439 1438 1438 1437 1437 1436 1435 1435 1434 1433 1433 1432 1431 1431 1430 1429 1428 1427 1426 1425 1424 1423 1421
1433 1434 1434 1434 1434 1434 1435 1435 1435 1436 1436 1436 1437 1437 1438 1438 1437 1437 1437 1437 1436 1436 1435 1435 1434 1433 1432 1431 1431 1430 1429 1428 1428 1427 1427 1426 1425 1424 1423 1422 1421 1420 1418
1432 1432 1432 1433 1433 1433 1433 1434 1434 1434 1435 1435 1435 1435 1435 1435 1435 1435 1435 1434 1434 1433 1432 1432 1431 1430 1429 1428 1428 1427 1426 1425 1424 1424 1423 1423 1422 1421 1420 1419 1418 1417 1415
1431 1431 1431 1431 1432 1432 1432 1432 1433 1433 1433 1433 1433 1433 1433 1433 1433 1433 1433 1432 1431 1430 1430 1429 1428 1427 1426 1425 1425 1424 1423 1422 1421 1421 1420 1420 1419 1418 1417 1416 1415 1414 1413
1430 1430 1430 1430 1430 1431 1431 1431 1431 1431 1432 1432 1432 1432 1432 1431 1431 1431 1430 1430 1429 1428 1427 1426 1425 1424 1424 1423 1422 1421 1420 1419 1419 1418 1417 1417 1416 1415 1415 1414 1413 1412 1411
1429 1429 1429 1429 1429 1430 1430 1430 1430 1430 1430 1430 1430 1430 1430 1429 1429 1429 1428 1427 1427 1426 1425 1424 1423 1422 1421 1420 1419 1418 1417 1417 1416 1415 1415 1414 1413 1413 1412 1411 1410 1409 1408